When you browse on this site, cookies collect data to enhance your experience and personalize the content and advertising you see.
Visit our Privacy Policy to learn more. By continuing to use the site, you agree to this use of cookies and data.
  • In Hungary
  • List of Countries
  • For 7 days
  • Water Temperature
  • Satellite Maps
  • Weather Map
  • News
  • Weather Widgets
  • user-avatar
    Login

    Hourly Weather Kalka

    Today, 23 July, Tuesday

    Time Temperature Precipitation Wind Pressure Humidity
    00:00 +29°C° 0 mm 1 mps 698 mmHg 68%
    01:00 +29°C° 0 mm 1 mps 698 mmHg 69%
    02:00 +29°C° 0 mm 1 mps 698 mmHg 69%
    03:00 +29°C° 0.1 mm 1 mps 698 mmHg 70%
    04:00 +29°C° 0.1 mm 1 mps 698 mmHg 70%
    05:00 +28°C° 0.1 mm 1 mps 697 mmHg 71%
    06:00 +30°C° 0 mm 1 mps 698 mmHg 66%
    07:00 +32°C° 0 mm 1 mps 698 mmHg 62%
    08:00 +33°C° 0 mm 1 mps 699 mmHg 57%
    09:00 +34°C° 0 mm 1 mps 699 mmHg 54%
    10:00 +36°C° 0 mm 2 mps 699 mmHg 50%
    11:00 +37°C° 0 mm 2 mps 698 mmHg 47%
    12:00 +38°C° 0 mm 2 mps 698 mmHg 46%
    13:00 +38°C° 0 mm 3 mps 698 mmHg 44%
    14:00 +39°C° 0 mm 3 mps 697 mmHg 43%
    15:00 +38°C° 0 mm 3 mps 697 mmHg 44%
    16:00 +38°C° 0 mm 3 mps 696 mmHg 45%
    17:00 +38°C° 0 mm 3 mps 696 mmHg 46%
    18:00 +36°C° 0 mm 3 mps 696 mmHg 50%
    19:00 +34°C° 0 mm 2 mps 696 mmHg 54%
    20:00 +32°C° 0 mm 1 mps 696 mmHg 59%
    21:00 +32°C° 0 mm 1 mps 696 mmHg 59%
    22:00 +31°C° 0 mm 1 mps 696 mmHg 60%
    23:00 +31°C° 0 mm 1 mps 696 mmHg 61%

    Tomorrow, 24 July, Wednesday

    Time Temperature Precipitation Wind Pressure Humidity
    00:00 +31°C° 0 mm 1 mps 696 mmHg 61%
    01:00 +31°C° 0 mm 1 mps 696 mmHg 61%
    02:00 +30°C° 0 mm 2 mps 696 mmHg 61%
    03:00 +30°C° 0 mm 1 mps 696 mmHg 61%
    04:00 +30°C° 0 mm 1 mps 695 mmHg 61%
    05:00 +30°C° 0 mm 1 mps 695 mmHg 61%
    06:00 +32°C° 0 mm 1 mps 696 mmHg 57%
    07:00 +33°C° 0 mm 1 mps 696 mmHg 53%
    08:00 +33°C° 0 mm 0 mps 697 mmHg 50%
    09:00 +36°C° 0 mm 1 mps 697 mmHg 47%
    10:00 +38°C° 0 mm 2 mps 697 mmHg 44%
    11:00 +39°C° 0 mm 3 mps 697 mmHg 41%
    12:00 +39°C° 0.1 mm 3 mps 696 mmHg 41%
    13:00 +39°C° 0.1 mm 3 mps 696 mmHg 42%
    14:00 +39°C° 0.1 mm 3 mps 695 mmHg 42%
    15:00 +39°C° 0.1 mm 3 mps 695 mmHg 43%
    16:00 +39°C° 0.1 mm 3 mps 695 mmHg 44%
    17:00 +38°C° 0.1 mm 2 mps 695 mmHg 45%
    18:00 +37°C° 0.1 mm 2 mps 695 mmHg 48%
    19:00 +35°C° 0.1 mm 2 mps 695 mmHg 52%
    20:00 +33°C° 0.1 mm 1 mps 696 mmHg 56%
    21:00 +33°C° 0 mm 1 mps 696 mmHg 57%
    22:00 +32°C° 0 mm 2 mps 696 mmHg 57%
    23:00 +32°C° 0 mm 2 mps 696 mmHg 58%

    Day after tomorrow, 25 July, Thursday

    Time Temperature Precipitation Wind Pressure Humidity
    00:00 +31°C° 0.3 mm 2 mps 696 mmHg 61%
    01:00 +31°C° 0.3 mm 2 mps 695 mmHg 64%
    02:00 +30°C° 0.3 mm 3 mps 695 mmHg 67%
    03:00 +30°C° 1.1 mm 3 mps 695 mmHg 72%
    04:00 +29°C° 1.1 mm 3 mps 695 mmHg 77%
    05:00 +28°C° 1.1 mm 3 mps 695 mmHg 82%
    06:00 +28°C° 2.2 mm 3 mps 696 mmHg 82%
    07:00 +29°C° 2.2 mm 3 mps 696 mmHg 82%
    08:00 +29°C° 2.2 mm 3 mps 697 mmHg 82%
    09:00 +29°C° 0.5 mm 3 mps 697 mmHg 80%
    10:00 +30°C° 0.5 mm 3 mps 697 mmHg 78%
    11:00 +31°C° 0.5 mm 3 mps 697 mmHg 76%
    12:00 +32°C° 2.2 mm 4 mps 696 mmHg 75%
    13:00 +33°C° 2.2 mm 4 mps 696 mmHg 73%
    14:00 +34°C° 2.2 mm 5 mps 696 mmHg 71%
    15:00 +33°C° 1.4 mm 5 mps 695 mmHg 73%
    16:00 +32°C° 1.4 mm 4 mps 695 mmHg 76%
    17:00 +32°C° 1.4 mm 4 mps 695 mmHg 78%
    18:00 +29°C° 1 mm 5 mps 695 mmHg 82%
    19:00 +28°C° 1 mm 5 mps 696 mmHg 85%
    20:00 +27°C° 1 mm 5 mps 696 mmHg 89%
    21:00 +27°C° 1.8 mm 5 mps 696 mmHg 89%
    22:00 +27°C° 1.8 mm 4 mps 697 mmHg 89%
    23:00 +27°C° 1.8 mm 4 mps 697 mmHg 89%

    26 July, Friday

    Time Temperature Precipitation Wind Pressure Humidity
    00:00 +27°C° 1 mm 3 mps 697 mmHg 88%
    01:00 +26°C° 1 mm 3 mps 696 mmHg 88%
    02:00 +26°C° 1 mm 3 mps 696 mmHg 88%
    03:00 +26°C° 1.4 mm 2 mps 696 mmHg 88%
    04:00 +26°C° 1.4 mm 2 mps 696 mmHg 89%
    05:00 +26°C° 1.4 mm 1 mps 696 mmHg 89%
    06:00 +26°C° 0.6 mm 1 mps 697 mmHg 89%
    07:00 +26°C° 0.6 mm 1 mps 697 mmHg 90%
    08:00 +26°C° 0.6 mm 1 mps 698 mmHg 90%
    09:00 +26°C° 1.7 mm 1 mps 698 mmHg 90%
    10:00 +26°C° 1.7 mm 1 mps 698 mmHg 91%
    11:00 +26°C° 1.7 mm 1 mps 698 mmHg 91%
    12:00 +27°C° 1.3 mm 1 mps 698 mmHg 90%
    13:00 +27°C° 1.3 mm 1 mps 697 mmHg 88%
    14:00 +27°C° 1.3 mm 1 mps 697 mmHg 87%
    15:00 +27°C° 0.2 mm 1 mps 697 mmHg 84%
    16:00 +28°C° 0.2 mm 1 mps 697 mmHg 82%
    17:00 +28°C° 0.2 mm 1 mps 696 mmHg 80%
    18:00 +28°C° 0 mm 1 mps 697 mmHg 81%
    19:00 +27°C° 0 mm 1 mps 697 mmHg 81%
    20:00 +27°C° 0 mm 1 mps 697 mmHg 81%
    21:00 +27°C° 0 mm 1 mps 697 mmHg 81%
    22:00 +27°C° 0 mm 1 mps 697 mmHg 80%
    23:00 +26°C° 0 mm 1 mps 697 mmHg 79%

    27 July, Saturday

    Time Temperature Precipitation Wind Pressure Humidity
    00:00 +26°C° 0.4 mm 1 mps 697 mmHg 81%
    01:00 +26°C° 0.4 mm 1 mps 697 mmHg 83%
    02:00 +26°C° 0.4 mm 1 mps 696 mmHg 85%
    03:00 +26°C° 0.6 mm 1 mps 696 mmHg 84%
    04:00 +26°C° 0.6 mm 1 mps 696 mmHg 84%
    05:00 +26°C° 0.6 mm 1 mps 696 mmHg 84%
    06:00 +26°C° 0.6 mm 1 mps 696 mmHg 83%
    07:00 +26°C° 0.6 mm 1 mps 697 mmHg 83%
    08:00 +27°C° 0.6 mm 1 mps 697 mmHg 82%
    09:00 +27°C° 0.4 mm 1 mps 697 mmHg 80%
    10:00 +28°C° 0.4 mm 1 mps 697 mmHg 78%
    11:00 +29°C° 0.4 mm 1 mps 697 mmHg 75%
    12:00 +30°C° 0.8 mm 1 mps 697 mmHg 71%
    13:00 +31°C° 0.8 mm 1 mps 697 mmHg 67%
    14:00 +34°C° 0.8 mm 2 mps 697 mmHg 62%
    15:00 +31°C° 1.5 mm 1 mps 696 mmHg 68%
    16:00 +30°C° 1.5 mm 1 mps 696 mmHg 74%
    17:00 +29°C° 1.5 mm 1 mps 696 mmHg 79%
    18:00 +28°C° 0.5 mm 1 mps 696 mmHg 81%
    19:00 +28°C° 0.5 mm 1 mps 696 mmHg 82%
    20:00 +27°C° 0.5 mm 2 mps 696 mmHg 83%
    21:00 +27°C° 0 mm 2 mps 696 mmHg 83%
    22:00 +27°C° 0 mm 2 mps 697 mmHg 82%
    23:00 +27°C° 0 mm 2 mps 697 mmHg 82%

    28 July, Sunday

    Time Temperature Precipitation Wind Pressure Humidity
    00:00 +27°C° 0 mm 2 mps 697 mmHg 82%
    01:00 +27°C° 0 mm 2 mps 696 mmHg 81%
    02:00 +27°C° 0 mm 2 mps 696 mmHg 81%
    03:00 +26°C° 1.3 mm 2 mps 696 mmHg 83%
    04:00 +26°C° 1.3 mm 2 mps 696 mmHg 85%
    05:00 +26°C° 1.3 mm 2 mps 696 mmHg 87%
    06:00 +27°C° 0.5 mm 2 mps 697 mmHg 86%
    07:00 +27°C° 0.5 mm 2 mps 697 mmHg 86%
    08:00 +28°C° 0.5 mm 3 mps 698 mmHg 85%
    09:00 +29°C° 0.4 mm 3 mps 698 mmHg 82%
    10:00 +30°C° 0.4 mm 3 mps 698 mmHg 79%
    11:00 +31°C° 0.4 mm 3 mps 698 mmHg 75%
    12:00 +31°C° 2.1 mm 3 mps 698 mmHg 73%
    13:00 +33°C° 2.1 mm 3 mps 697 mmHg 70%
    14:00 +34°C° 2.1 mm 3 mps 697 mmHg 68%
    15:00 +32°C° 1.8 mm 2 mps 697 mmHg 69%
    16:00 +32°C° 1.8 mm 2 mps 697 mmHg 71%
    17:00 +32°C° 1.8 mm 1 mps 697 mmHg 72%
    18:00 +31°C° 0.3 mm 1 mps 697 mmHg 75%
    19:00 +30°C° 0.3 mm 1 mps 697 mmHg 78%
    20:00 +28°C° 0.3 mm 2 mps 697 mmHg 81%
    21:00 +28°C° 0 mm 2 mps 697 mmHg 81%
    22:00 +28°C° 0 mm 2 mps 697 mmHg 81%
    23:00 +28°C° 0 mm 2 mps 697 mmHg 81%
    Show more